Regional Weather Roundup
Issued by NWS

Home | Current Version | Previous Version | Text Only | Print | Product List | Glossary Off
Versions: 1 2 3 4 5 6 7 8 9 10 11 12 13 14 15 16 17 18 19 20 21 22 23 24 25 26 27 28 29 30 31 32 33 34 35 36 37 38 39 40 41 42 43 44 45 46 47 48 49 50

000
ASUS43 KBIS 020110
RWRND

NORTH DAKOTA REGIONAL WEATHER ROUNDUP
NATIONAL WEATHER SERVICE BISMARCK ND
800 PM CDT WED OCT 01 2014

NOTE: "FAIR" INDICATES FEW OR NO CLOUDS BELOW 12,000 FEET WITH NO
SIGNIFICANT WEATHER AND/OR OBSTRUCTIONS TO VISIBILITY.


NDZ001>003-009>011-017-020200-
NORTHWEST NORTH DAKOTA

CITY           SKY/WX    TMP DP  RH WIND       PRES   REMARKS
WILLISTON      MOCLDY    53  45  74 W7        29.82R
MINOT          MOCLDY    53  45  74 W12       29.76R
MINOT AFB      PTCLDY    51  48  89 W8        29.75R
$$

NDZ018>021-031>035-040>046-020200-
SOUTHWEST NORTH DAKOTA

CITY           SKY/WX    TMP DP  RH WIND       PRES   REMARKS
BISMARCK       CLOUDY    57  48  72 W8        29.82R
DICKINSON      LGT RAIN  53  45  74 NW9       29.85R
GARRISON         N/A     53  47  79 NW6       29.80R
HETTINGER ARPT CLOUDY    51  44  77 W8        29.89R
$$

NDZ004>008-012>016-024-026-027-054-020200-
NORTHEAST NORTH DAKOTA

CITY           SKY/WX    TMP DP  RH WIND       PRES   REMARKS
GRAND FORKS    CLOUDY    60  52  74 SW5       29.69R
GRND FRKS AFB  CLOUDY    60  53  80 W7        29.70R
DEVILS LAKE    CLOUDY    57  46  67 W16       29.70R
$$

NDZ022-023-025-028>030-036>039-047>053-020200-
SOUTHEAST NORTH DAKOTA

CITY           SKY/WX    TMP DP  RH WIND       PRES   REMARKS
FARGO          CLOUDY    63  50  62 W9        29.74R
JAMESTOWN      CLOUDY    58  49  72 W10       29.77R
$$




USA.gov is the U.S. government's official web portal to all federal, state and local government web resources and services.